Wind_Speed
57 57 56 56 57 57 57 58 60 60 60 58 58 58 58 56 55 55 55 54 54 54 54 55 55 55 56 57 57 57 58 59 61 62 62 63 63 61
50 52 53 54 55 56 57 58 59 61 61 59 58 57 57 56 54 53 54 53 52 52 52 52 53 53 53 54 55 55 57 58 59 61 62 62 63 63
46 49 50 51 52 52 54 56 57 58 59 59 59 58 57 55 53 52 51 51 50 49 48 48 48 49 50 51 51 53 54 56 58 59 61 63 63 64
46 48 49 49 50 50 51 52 54 56 57 57 56 55 54 52 50 50 49 48 47 46 45 44 45 45 46 46 48 50 52 54 56 58 61 63 65 67
45 46 47 48 48 48 49 50 52 54 54 54 53 52 51 49 48 48 47 46 45 44 43 43 43 43 43 44 46 48 51 53 55 57 60 62 66 69
44 44 44 44 45 46 47 48 49 50 50 50 49 49 48 47 46 45 45 45 44 43 43 42 42 42 42 43 44 46 48 50 51 53 55 58 62 67
42 40 40 40 41 42 43 44 46 46 46 46 45 44 44 44 43 43 44 44 43 43 43 42 42 42 42 42 42 44 45 46 47 48 49 51 54 58
39 38 38 38 38 38 39 41 42 43 43 44 43 43 42 41 40 41 41 42 42 43 43 42 43 42 42 42 42 42 42 44 45 46 46 48 49 52
38 38 38 36 35 36 37 39 40 42 43 44 42 42 41 40 40 40 40 41 42 43 43 43 44 44 44 43 43 43 43 43 44 45 45 46 47 49
37 37 36 35 34 35 36 38 40 42 43 44 44 43 42 42 42 41 41 42 43 44 45 45 46 45 45 45 45 44 43 42 42 43 44 45 46 47
35 34 34 34 33 34 35 37 40 42 43 44 44 44 43 43 43 43 43 43 44 46 46 46 47 47 47 47 47 45 44 43 42 43 43 43 44 45
34 33 33 34 34 34 35 36 38 40 41 43 44 44 44 45 45 45 45 46 46 47 48 48 48 48 48 48 48 47 46 44 42 42 41 41 41 42
34 32 33 33 34 34 35 36 38 39 40 42 43 44 45 46 46 47 47 47 48 49 49 49 49 49 48 48 49 49 47 45 43 41 40 40 39 39
35 34 34 34 34 34 35 36 37 39 41 42 44 45 46 47 48 48 49 49 50 50 51 50 50 50 50 49 48 48 48 47 44 41 39 38 36 35
39 39 38 38 37 37 36 36 36 38 40 43 45 47 48 49 50 51 51 51 51 52 52 52 52 52 51 51 49 48 48 48 47 43 39 35 33 32
45 45 45 43 43 42 41 40 39 39 40 42 44 47 49 51 52 53 53 53 53 53 54 54 53 53 52 51 50 49 49 48 48 45 40 35 31 29
52 52 52 51 50 49 48 47 46 45 45 45 46 48 50 51 53 54 54 54 54 54 54 54 54 53 53 52 51 50 49 48 48 46 42 36 32 29
57 58 58 58 57 56 55 54 53 52 51 50 50 50 51 52 53 54 55 55 54 54 54 54 54 53 52 51 51 50 49 49 48 47 44 40 35 32
62 62 63 63 63 62 62 61 60 58 57 56 55 55 54 54 54 54 54 54 54 53 53 53 53 53 52 50 49 50 49 50 49 48 46 43 38 36
65 66 66 67 67 67 66 66 65 64 63 61 60 59 58 57 56 56 55 55 54 53 53 53 54 53 52 50 48 48 50 50 50 49 48 46 42 40
69 69 70 70 70 70 69 69 68 67 66 65 64 63 62 61 60 59 58 57 56 55 54 54 55 54 53 51 49 48 49 50 49 49 49 48 46 44
74 74 74 74 74 74 73 72 71 70 69 69 67 66 65 64 63 61 60 59 58 56 55 54 54 54 53 52 50 49 49 51 51 50 49 49 48 47
76 78 79 79 79 78 78 77 75 74 73 72 71 70 68 67 65 64 63 61 59 58 56 55 55 54 53 52 50 49 48 50 52 52 51 51 50 49
Wind_Direction
252 252 252 253 253 253 252 251 251 250 249 248 248 248 248 248 248 249 249 249 250 251 251 251 251 251 251 251 251 252 252 253 253 254 255 255 255 255
251 252 253 253 253 254 253 252 251 250 248 247 246 246 247 247 248 249 250 250 250 251 251 251 251 251 252 252 252 252 252 253 253 254 254 254 255 255
255 254 254 254 255 255 254 252 251 249 248 245 244 245 246 246 248 250 251 250 250 250 250 250 251 252 253 254 255 255 255 255 255 255 254 254 254 254
258 256 255 255 254 253 253 252 250 248 246 242 241 243 245 246 248 250 250 249 249 248 248 249 251 253 255 256 258 258 258 258 258 258 257 256 255 254
259 258 256 254 253 253 252 252 249 246 243 240 239 241 244 245 247 249 249 248 247 246 246 248 251 253 256 257 258 259 259 259 259 259 258 257 256 255
261 259 256 253 253 254 253 252 248 243 240 238 237 239 242 244 245 247 248 247 245 245 245 247 251 254 256 257 259 260 261 261 261 261 261 260 259 257
260 259 257 255 254 254 253 250 243 238 236 235 236 238 239 241 242 244 245 245 244 244 245 248 251 253 256 258 260 262 264 266 266 267 268 268 267 263
260 261 259 256 254 252 251 245 237 234 231 232 235 238 239 240 241 242 242 242 243 245 246 248 251 253 255 258 261 265 268 271 272 273 275 276 275 272
262 262 258 254 253 250 246 239 234 232 232 233 235 238 240 241 242 241 241 242 244 247 248 249 251 252 255 258 261 265 269 273 275 277 280 280 279 276
262 259 254 252 251 248 244 238 234 233 233 235 237 239 240 241 243 243 243 244 245 247 249 250 252 253 255 257 260 264 268 273 276 278 281 283 281 277
258 255 251 248 246 245 243 240 238 236 236 238 240 241 243 244 245 246 246 246 246 248 250 251 252 254 256 258 260 263 266 271 275 278 282 285 283 277
253 250 248 245 243 244 243 243 242 242 242 242 245 246 246 247 248 248 248 248 248 249 251 252 253 254 255 257 260 262 264 269 274 278 282 284 283 277
251 249 248 247 245 244 245 245 246 247 247 248 249 250 250 250 250 250 250 250 250 251 252 253 254 255 255 255 258 261 263 266 270 275 279 282 283 276
250 250 249 248 248 248 248 249 250 251 251 252 252 252 252 252 252 252 253 253 253 253 254 254 255 256 257 257 256 257 261 263 266 271 276 280 282 276
252 251 250 250 250 250 251 252 253 255 256 256 256 255 254 254 255 255 255 254 255 255 255 256 256 257 257 257 256 256 257 260 263 266 270 277 280 274
255 254 253 253 253 252 253 254 256 258 260 261 260 259 257 256 256 256 256 255 256 256 257 257 257 257 257 257 256 254 254 255 259 262 264 269 274 271
255 255 254 254 255 255 255 256 258 260 262 263 263 262 260 258 257 256 255 255 256 257 258 257 257 257 257 257 255 254 252 252 254 257 260 262 265 266
255 255 255 255 256 256 256 257 258 259 261 262 262 262 261 259 258 256 255 255 256 256 257 258 258 258 257 256 255 253 250 249 250 252 254 255 257 259
255 255 255 255 255 256 256 257 258 258 259 260 261 260 260 259 258 257 256 256 255 256 257 257 258 258 257 256 255 254 250 247 246 248 250 251 252 255
256 255 255 255 255 255 256 256 257 257 258 258 258 258 258 257 257 256 256 256 256 256 256 257 258 257 257 255 253 254 253 248 245 245 247 249 250 251
256 256 256 255 255 255 255 255 255 256 256 256 256 256 256 255 255 255 255 255 255 255 256 257 258 258 256 255 253 252 253 253 248 246 246 247 248 250
258 257 256 255 255 255 255 255 255 255 255 255 255 255 255 254 254 254 254 254 254 255 255 256 257 257 257 256 254 252 251 253 253 250 249 248 248 249
260 259 258 257 256 255 255 254 254 254 254 254 254 254 254 254 254 254 254 254 254 255 255 255 255 256 256 255 254 252 251 252 253 253 253 252 251 250
Height
5574 5577 5580 5583 5587 5589 5593 5596 5600 5604 5609 5612 5615 5618 5623 5628 5632 5635 5639 5643 5646 5650 5654 5658 5662 5665 5669 5673 5676 5680 5683 5687 5690 5694 5698 5701 5706 5711
5558 5561 5564 5567 5570 5573 5577 5580 5584 5588 5593 5597 5600 5603 5608 5613 5617 5621 5625 5629 5632 5636 5640 5643 5647 5650 5654 5657 5661 5664 5668 5671 5674 5678 5682 5685 5689 5694
5543 5546 5549 5552 5555 5558 5561 5564 5568 5572 5577 5582 5585 5589 5593 5599 5604 5608 5611 5614 5618 5622 5625 5629 5632 5636 5639 5642 5646 5649 5652 5655 5659 5662 5665 5669 5673 5678
5529 5532 5534 5537 5540 5542 5545 5548 5552 5556 5561 5567 5571 5575 5579 5585 5590 5594 5597 5600 5604 5608 5612 5615 5619 5622 5625 5628 5631 5634 5637 5640 5643 5646 5650 5653 5656 5658
5515 5517 5519 5522 5524 5527 5530 5533 5537 5541 5546 5552 5558 5562 5566 5571 5576 5580 5584 5587 5591 5595 5599 5603 5606 5608 5612 5614 5617 5619 5622 5625 5628 5630 5631 5633 5636 5639
5501 5503 5505 5507 5510 5512 5515 5518 5522 5527 5532 5538 5544 5549 5554 5559 5563 5567 5571 5574 5578 5582 5586 5590 5593 5596 5599 5601 5604 5606 5607 5609 5610 5612 5613 5615 5616 5618
5488 5489 5491 5493 5496 5498 5501 5504 5508 5514 5519 5525 5531 5537 5542 5546 5551 5555 5559 5562 5566 5570 5574 5578 5581 5583 5585 5588 5590 5591 5593 5594 5595 5595 5595 5596 5596 5596
5475 5477 5479 5481 5483 5486 5488 5492 5496 5501 5507 5513 5519 5524 5530 5535 5539 5543 5547 5550 5554 5557 5561 5564 5567 5570 5573 5575 5577 5578 5579 5580 5579 5579 5578 5578 5576 5575
5463 5465 5466 5469 5471 5474 5476 5480 5485 5490 5497 5502 5507 5512 5518 5523 5527 5530 5534 5537 5541 5544 5548 5552 5555 5558 5560 5562 5564 5565 5565 5565 5565 5564 5563 5561 5558 5557
5451 5453 5455 5458 5460 5462 5465 5470 5474 5480 5485 5491 5496 5500 5504 5509 5513 5517 5521 5525 5528 5531 5534 5539 5541 5545 5547 5549 5549 5550 5552 5552 5551 5549 5547 5544 5541 5540
5440 5442 5444 5447 5450 5452 5455 5460 5464 5469 5474 5478 5482 5486 5491 5496 5500 5504 5508 5511 5515 5517 5520 5524 5527 5531 5533 5534 5535 5537 5537 5537 5537 5535 5533 5530 5526 5524
5430 5432 5433 5435 5438 5441 5445 5449 5453 5457 5461 5466 5469 5474 5478 5482 5486 5490 5494 5497 5500 5502 5505 5509 5512 5515 5519 5520 5521 5522 5523 5524 5524 5522 5520 5516 5512 5510
5419 5422 5423 5424 5427 5431 5434 5438 5441 5445 5449 5453 5457 5460 5464 5468 5472 5475 5478 5482 5485 5487 5490 5494 5497 5499 5503 5507 5508 5508 5509 5510 5511 5510 5507 5504 5500 5497
5408 5410 5412 5414 5416 5419 5422 5425 5429 5432 5435 5439 5443 5447 5450 5453 5456 5460 5463 5467 5469 5472 5474 5478 5481 5484 5487 5491 5495 5496 5496 5497 5497 5497 5496 5493 5490 5487
5395 5397 5400 5402 5404 5407 5410 5412 5416 5418 5421 5425 5428 5431 5435 5438 5441 5444 5448 5451 5453 5456 5458 5461 5465 5469 5472 5476 5479 5482 5483 5483 5483 5485 5485 5484 5481 5479
5381 5383 5386 5389 5391 5393 5396 5399 5401 5404 5407 5409 5412 5415 5418 5422 5425 5428 5431 5435 5437 5440 5442 5445 5449 5453 5456 5460 5464 5467 5468 5471 5471 5472 5474 5475 5473 5472
5365 5367 5370 5373 5375 5378 5381 5383 5386 5389 5391 5394 5396 5399 5402 5405 5407 5411 5414 5418 5421 5424 5426 5429 5433 5436 5440 5444 5448 5451 5454 5457 5459 5460 5462 5464 5465 5464
5346 5349 5351 5354 5357 5360 5363 5366 5369 5372 5374 5377 5380 5382 5385 5388 5390 5393 5397 5401 5404 5408 5410 5413 5416 5420 5424 5429 5432 5435 5439 5442 5445 5447 5449 5452 5455 5455
5325 5328 5330 5333 5336 5339 5342 5346 5349 5352 5356 5359 5362 5365 5368 5371 5374 5376 5379 5383 5387 5391 5394 5396 5399 5403 5408 5413 5417 5419 5423 5426 5430 5433 5436 5440 5444 5446
5302 5304 5307 5310 5313 5317 5320 5324 5328 5331 5335 5339 5343 5346 5350 5353 5357 5360 5363 5366 5371 5375 5378 5380 5383 5387 5391 5396 5402 5405 5405 5409 5414 5419 5423 5426 5431 5434
5277 5280 5282 5285 5289 5293 5297 5301 5305 5309 5313 5317 5322 5326 5330 5335 5338 5342 5346 5349 5353 5358 5362 5365 5366 5370 5375 5380 5386 5391 5392 5393 5398 5403 5409 5413 5418 5422
5250 5253 5256 5259 5263 5267 5272 5276 5281 5286 5290 5295 5300 5304 5309 5314 5319 5323 5327 5332 5336 5340 5345 5349 5351 5354 5358 5363 5369 5374 5378 5380 5382 5387 5393 5398 5402 5409
5221 5224 5227 5231 5235 5240 5245 5250 5256 5261 5266 5271 5277 5282 5288 5293 5298 5303 5308 5313 5318 5323 5327 5332 5335 5339 5342 5347 5352 5358 5363 5365 5368 5372 5377 5381 5387 5393